Wind_Speed
36 35 33 34 37 39 41 41 42 44 47 49 50 50 50 51 50 50 48 48 48 46 47 46 48 42 44 41 40 34 32 31 28 29 31 31 29 27 26 23 26 30 28
40 39 40 42 44 44 46 48 49 51 52 52 52 52 52 53 53 54 52 50 49 48 48 50 48 46 45 45 38 36 34 31 29 27 29 30 29 24 27 23 25 26 27
44 45 48 52 52 52 52 52 53 54 54 54 55 55 56 55 55 55 55 53 50 49 47 50 51 49 45 43 39 38 38 37 34 30 26 28 27 27 30 28 25 27 28
51 54 55 56 56 56 55 56 57 57 55 56 57 58 59 57 57 57 56 55 53 50 49 49 53 54 50 48 47 43 42 41 39 36 28 26 28 26 41 34 27 26 24
56 56 57 57 57 58 60 60 60 60 58 61 60 60 60 56 54 56 57 54 52 51 50 50 52 55 54 55 53 50 49 46 45 41 33 30 27 25 24 26 25 27 26
58 60 62 62 60 59 60 61 61 58 61 59 62 59 57 53 51 52 53 53 52 50 49 49 52 55 58 56 59 57 56 53 50 46 40 35 31 27 24 29 26 29 28
63 65 64 64 63 64 62 58 58 59 57 57 54 53 51 51 49 49 50 51 50 48 47 47 49 53 56 58 59 62 63 62 55 50 45 40 38 38 39 36 29 30 31
66 67 66 65 63 62 61 59 57 58 53 50 49 51 51 47 46 46 46 46 42 42 44 47 47 49 53 57 57 61 61 64 59 54 50 43 44 44 40 39 37 36 33
68 69 69 69 66 63 59 58 53 53 47 48 50 50 51 43 40 43 46 46 44 42 43 45 45 46 49 55 57 59 59 62 61 58 56 50 49 55 49 48 40 39 34
70 70 70 66 61 54 50 43 44 41 42 45 47 45 38 37 41 43 47 47 44 43 43 42 43 44 45 50 56 55 59 61 62 62 56 53 57 59 57 54 47 42 39
60 58 54 51 46 44 39 39 42 39 39 40 38 35 38 36 40 36 36 38 33 34 36 40 42 43 44 46 49 53 51 55 59 65 60 61 61 60 59 58 52 47 46
54 51 46 43 40 42 36 37 35 36 35 34 35 34 34 37 25 17 14 21 26 28 28 31 35 38 43 45 47 46 47 50 54 56 63 63 59 61 63 63 62 54 52
44 42 41 36 36 32 29 32 33 34 34 34 36 31 31 22 22 17 17 20 24 24 25 26 33 34 38 44 43 44 48 50 48 48 49 51 54 61 61 62 66 62 58
38 35 33 29 29 29 31 30 29 30 30 33 28 24 23 21 17 15 15 17 20 23 24 23 27 30 33 36 40 40 40 43 45 48 49 54 47 60 59 63 61 65 62
33 32 29 31 32 31 33 29 27 27 27 25 22 20 15 14 14 11 12 17 19 23 24 25 24 27 31 34 35 36 37 41 41 42 44 47 41 42 54 63 70 68 65
31 32 33 32 32 29 27 30 26 24 29 20 17 16 11 5 4 7 9 17 29 6 12 21 23 26 30 33 35 37 38 41 39 39 32 37 36 44 46 47 63 63 60
29 32 29 25 24 26 30 30 27 20 15 14 15 13 10 7 8 10 11 12 20 13 14 17 23 19 17 25 31 33 32 33 35 36 37 23 28 25 38 33 49 52 32
29 29 28 21 25 22 23 10 13 10 12 8 12 13 11 10 10 10 10 12 12 13 16 20 24 14 24 32 22 20 20 26 31 25 25 29 30 23 31 21 26 40 30
27 27 28 20 17 17 16 7 13 12 12 12 12 13 13 16 13 11 11 12 13 10 9 10 11 12 12 16 14 14 16 17 22 25 26 27 28 28 31 32 30 32 30
25 23 22 18 16 14 16 14 11 14 12 16 11 10 5 13 17 11 11 11 12 13 11 8 7 4 3 12 17 21 19 17 19 23 26 27 29 30 30 36 35 34 31
25 20 19 19 17 13 12 12 8 6 11 12 1 5 11 13 12 13 11 11 12 13 14 13 12 10 8 9 7 9 16 22 23 25 27 28 32 33 32 30 34 37 36
27 22 20 18 18 15 14 12 10 10 10 5 3 6 8 11 13 12 11 10 13 14 15 15 13 11 12 13 12 11 12 11 10 12 19 23 24 35 35 34 35 36 39
29 24 20 18 12 12 14 12 11 13 8 8 9 11 14 12 13 10 13 13 13 19 17 16 17 16 14 13 16 16 15 15 16 16 14 15 14 14 14 16 19 21 22
30 27 22 20 19 17 18 17 15 15 14 17 22 15 15 12 13 14 15 15 15 18 15 15 17 18 16 15 17 15 16 19 19 19 19 19 20 21 21 21 22 24 26
30 30 26 22 20 21 18 15 16 19 18 14 15 16 13 12 12 14 15 16 17 18 16 18 18 18 19 18 20 19 19 17 18 18 20 22 22 23 25 25 26 26 26
33 30 29 25 23 16 16 18 19 21 19 20 13 18 14 17 15 16 17 18 20 20 18 19 21 21 22 21 22 22 22 23 22 21 21 21 22 22 23 24 26 27 28
Wind_Direction
294 291 288 287 286 288 288 286 282 281 281 282 283 283 282 282 282 279 279 276 274 271 267 268 262 264 247 246 247 244 249 250 241 247 263 271 276 267 262 258 249 248 245
295 298 297 295 293 292 291 289 286 286 286 286 285 283 281 280 279 280 278 276 272 267 263 262 262 257 259 240 242 244 244 246 243 239 258 273 278 254 254 245 246 245 246
297 296 298 298 296 293 292 290 287 286 286 284 283 283 282 281 278 277 277 275 270 264 259 255 254 254 245 245 242 241 243 245 246 245 251 267 279 241 242 240 243 246 243
298 297 294 292 291 290 289 289 288 286 285 283 283 282 282 282 280 277 275 273 270 266 261 256 252 249 245 240 240 239 238 243 246 247 249 258 276 277 228 225 227 234 238
291 291 291 290 289 290 289 289 289 289 286 285 282 282 285 284 282 276 273 270 268 266 261 254 250 248 247 238 240 238 240 239 242 246 245 250 259 271 232 214 226 231 234
290 290 292 292 289 292 291 292 291 288 290 285 285 290 287 282 278 273 269 267 266 263 259 255 249 245 245 241 238 239 240 240 241 244 244 245 248 250 258 249 225 235 238
289 292 294 294 293 291 291 290 289 290 288 289 289 287 285 283 275 267 263 264 263 261 258 253 250 245 243 242 238 238 239 239 241 243 246 245 246 250 252 244 239 238 240
294 294 293 291 290 289 290 289 287 287 287 291 291 289 288 282 274 264 262 263 262 259 256 254 249 244 241 240 242 237 239 237 240 244 247 243 248 249 252 240 240 239 239
292 291 290 293 290 289 288 291 289 284 285 289 292 288 283 277 271 264 264 259 257 254 255 252 248 242 238 237 240 236 237 236 240 242 243 245 243 251 252 249 244 239 238
293 295 295 294 293 292 287 283 282 283 286 287 287 285 278 273 274 268 264 259 256 254 251 246 247 240 235 237 238 240 237 236 241 244 244 242 241 247 258 246 244 237 238
295 299 300 297 290 284 276 276 281 284 288 287 284 280 280 281 279 267 256 256 249 252 250 248 244 241 234 235 236 238 239 240 237 239 242 245 248 243 250 248 247 235 238
301 300 300 298 283 292 284 286 283 284 287 290 284 281 279 285 280 273 268 252 246 248 253 245 240 241 237 234 235 237 239 241 239 239 242 246 252 245 247 248 250 240 241
299 298 295 296 285 289 293 290 286 287 285 293 285 277 278 267 263 260 259 260 264 262 254 247 240 238 237 237 236 233 240 243 243 246 246 251 251 245 246 240 240 239 238
303 302 298 297 294 294 299 292 287 283 294 293 282 276 266 260 255 250 269 275 272 272 258 254 235 233 237 237 239 236 235 240 246 248 252 252 246 256 247 238 239 237 234
305 303 296 294 292 294 297 290 285 288 289 279 278 270 256 237 242 259 275 280 265 254 249 248 240 233 233 234 236 238 241 244 256 253 264 250 254 248 246 247 239 230 233
311 308 302 296 295 296 292 291 289 284 291 272 269 272 263 203 242 260 274 273 253 286 251 237 237 241 231 235 239 243 244 252 254 256 258 252 247 264 252 237 226 226 232
320 317 312 311 300 298 304 291 286 274 271 274 280 257 239 215 238 263 267 284 270 254 254 242 233 228 244 240 246 247 243 245 250 250 256 264 242 277 214 230 226 223 223
312 320 323 316 311 305 333 249 248 248 247 274 268 264 254 237 261 276 284 288 301 321 254 235 214 210 209 224 236 246 246 242 244 252 244 240 230 221 221 218 212 211 223
308 312 323 313 319 313 327 280 266 258 253 271 272 270 282 268 256 278 287 284 287 293 323 319 329 236 237 259 259 253 243 250 253 252 252 249 241 235 240 245 238 236 243
317 308 316 320 312 322 316 316 271 256 254 264 275 283 263 277 261 265 284 285 288 288 284 283 305 330 276 260 263 260 236 253 248 245 247 250 253 258 252 253 248 246 245
317 310 309 316 310 313 295 304 281 254 264 262 262 266 268 291 288 267 288 294 287 286 289 283 277 282 282 272 260 246 244 244 253 253 247 245 255 259 256 255 253 249 247
305 310 304 305 305 298 320 292 275 237 252 228 252 281 300 287 275 261 260 271 281 283 280 280 282 277 276 274 271 263 256 257 257 254 250 255 256 250 248 250 250 248 246
292 298 300 293 288 293 302 294 283 258 232 263 234 233 258 265 259 257 260 257 268 272 266 271 270 270 266 267 267 264 265 263 258 254 259 261 259 259 262 260 260 263 269
285 285 284 283 276 283 291 296 296 280 271 262 257 241 250 266 278 273 264 254 247 256 263 253 258 263 262 264 262 258 261 264 266 267 266 262 260 260 257 254 254 253 252
295 275 271 268 274 277 276 280 295 286 265 247 256 266 261 268 278 279 271 264 257 256 257 256 250 251 256 255 257 259 260 262 260 261 264 264 266 266 264 262 260 261 261
288 273 260 253 254 265 270 275 288 291 280 242 267 271 273 269 282 286 279 274 265 261 256 255 264 252 249 248 252 252 251 249 250 255 256 258 260 259 260 262 263 262 261
Height
5875 5874 5873 5870 5866 5863 5860 5859 5857 5855 5852 5850 5848 5846 5843 5841 5839 5837 5837 5835 5834 5833 5835 5837 5841 5843 5845 5849 5849 5849 5853 5855 5861 5861 5860 5857 5857 5856 5857 5859 5860 5861 5862
5865 5863 5860 5857 5853 5851 5849 5846 5844 5841 5839 5836 5834 5833 5831 5829 5826 5823 5822 5822 5822 5822 5823 5822 5828 5832 5836 5838 5839 5841 5846 5848 5852 5855 5854 5851 5850 5851 5852 5853 5855 5858 5859
5854 5851 5847 5843 5840 5838 5834 5832 5828 5826 5824 5821 5818 5816 5815 5813 5812 5808 5806 5805 5806 5808 5810 5812 5816 5819 5826 5828 5829 5833 5837 5840 5844 5847 5850 5847 5844 5844 5846 5848 5851 5852 5855
5841 5839 5836 5832 5828 5824 5820 5816 5812 5810 5808 5805 5802 5800 5797 5796 5795 5792 5790 5789 5789 5792 5794 5797 5800 5804 5811 5815 5818 5822 5827 5831 5835 5838 5842 5842 5840 5839 5838 5841 5845 5848 5848
5830 5827 5822 5818 5814 5809 5805 5801 5798 5794 5791 5788 5785 5782 5780 5778 5777 5775 5772 5772 5774 5775 5778 5782 5784 5789 5795 5800 5804 5812 5816 5820 5824 5829 5833 5834 5835 5834 5831 5833 5839 5841 5842
5817 5811 5807 5802 5799 5795 5790 5786 5782 5778 5775 5771 5767 5765 5762 5759 5758 5757 5756 5756 5758 5760 5763 5766 5770 5773 5778 5785 5790 5798 5804 5808 5813 5819 5824 5827 5830 5831 5831 5830 5832 5836 5838
5801 5797 5792 5786 5783 5779 5774 5770 5766 5762 5758 5754 5751 5748 5745 5743 5741 5740 5739 5740 5742 5746 5748 5751 5755 5759 5763 5770 5776 5782 5788 5794 5801 5808 5813 5818 5821 5823 5823 5826 5828 5830 5832
5787 5780 5774 5769 5765 5761 5757 5753 5749 5746 5742 5739 5736 5732 5730 5727 5726 5725 5725 5725 5728 5731 5733 5736 5740 5744 5749 5755 5761 5766 5773 5782 5789 5796 5802 5808 5810 5811 5815 5816 5818 5822 5823
5769 5762 5756 5750 5747 5743 5740 5737 5732 5730 5727 5724 5721 5718 5714 5713 5711 5711 5710 5710 5713 5716 5718 5721 5724 5730 5737 5741 5744 5752 5759 5768 5777 5783 5789 5796 5800 5802 5805 5808 5812 5814 5816
5749 5743 5737 5731 5728 5725 5722 5720 5718 5716 5713 5710 5708 5703 5700 5700 5698 5696 5695 5696 5698 5702 5703 5707 5711 5717 5721 5726 5732 5739 5746 5758 5764 5770 5775 5782 5786 5789 5791 5797 5802 5807 5807
5732 5725 5718 5713 5711 5708 5707 5706 5705 5704 5701 5697 5696 5693 5690 5688 5687 5682 5679 5682 5686 5689 5692 5695 5700 5704 5709 5714 5720 5726 5737 5743 5748 5752 5756 5765 5772 5776 5781 5786 5790 5797 5798
5718 5712 5706 5702 5698 5697 5696 5695 5694 5692 5690 5688 5686 5684 5680 5678 5675 5675 5674 5675 5677 5680 5681 5684 5688 5693 5698 5703 5709 5718 5725 5727 5730 5738 5745 5752 5758 5762 5768 5772 5776 5784 5786
5705 5700 5695 5693 5690 5688 5686 5684 5684 5681 5680 5678 5676 5675 5673 5671 5670 5671 5671 5671 5671 5672 5673 5675 5679 5683 5687 5692 5699 5708 5711 5713 5720 5725 5733 5738 5741 5744 5748 5752 5758 5766 5771
5696 5691 5687 5685 5682 5679 5677 5675 5674 5671 5670 5668 5666 5665 5665 5665 5665 5666 5666 5665 5665 5665 5666 5668 5671 5675 5680 5685 5690 5696 5702 5705 5710 5714 5719 5722 5724 5726 5730 5738 5742 5747 5753
5688 5684 5680 5677 5673 5671 5668 5665 5664 5662 5662 5660 5659 5657 5658 5660 5661 5661 5661 5660 5658 5657 5655 5660 5665 5668 5674 5678 5682 5688 5692 5695 5699 5702 5705 5707 5708 5709 5712 5714 5721 5732 5741
5683 5677 5672 5667 5664 5661 5659 5657 5655 5654 5654 5653 5653 5654 5654 5655 5656 5658 5658 5655 5650 5648 5651 5655 5660 5663 5667 5671 5675 5679 5682 5683 5687 5689 5692 5693 5696 5697 5695 5700 5711 5720 5727
5678 5672 5666 5662 5658 5654 5650 5647 5645 5647 5649 5648 5649 5650 5650 5652 5653 5654 5655 5652 5650 5648 5648 5652 5656 5660 5659 5665 5667 5669 5670 5674 5678 5680 5682 5683 5687 5687 5689 5697 5706 5714 5713
5673 5669 5662 5657 5653 5650 5644 5641 5642 5644 5646 5647 5647 5648 5649 5649 5650 5651 5651 5650 5649 5648 5648 5648 5650 5650 5649 5655 5659 5661 5663 5666 5669 5672 5676 5680 5683 5688 5691 5687 5688 5701 5695
5669 5664 5659 5654 5651 5647 5644 5643 5642 5643 5644 5645 5646 5646 5646 5645 5647 5648 5650 5648 5647 5648 5648 5645 5643 5645 5649 5651 5654 5656 5658 5660 5662 5665 5669 5673 5677 5679 5682 5683 5688 5691 5694
5663 5659 5656 5652 5649 5645 5643 5641 5639 5640 5642 5643 5643 5642 5643 5642 5642 5645 5646 5646 5645 5645 5645 5646 5645 5644 5645 5646 5648 5649 5652 5654 5656 5659 5663 5666 5668 5671 5675 5678 5681 5684 5687
5659 5655 5652 5649 5646 5643 5641 5639 5638 5639 5639 5640 5640 5640 5640 5640 5639 5640 5642 5643 5643 5642 5641 5641 5642 5643 5644 5646 5645 5644 5645 5648 5651 5652 5654 5659 5661 5663 5667 5670 5671 5674 5678
5654 5650 5648 5645 5643 5641 5639 5638 5637 5636 5636 5637 5637 5638 5637 5637 5636 5636 5636 5638 5638 5638 5638 5638 5638 5639 5640 5641 5642 5643 5644 5644 5645 5648 5650 5652 5652 5655 5657 5660 5664 5666 5668
5647 5645 5642 5641 5639 5637 5636 5635 5633 5633 5634 5633 5634 5634 5633 5633 5632 5633 5632 5633 5634 5633 5634 5635 5634 5635 5635 5637 5638 5639 5640 5640 5640 5642 5643 5645 5647 5649 5650 5651 5654 5656 5658
5638 5637 5635 5635 5634 5633 5632 5631 5629 5628 5628 5629 5629 5628 5628 5629 5630 5630 5629 5629 5629 5628 5631 5631 5630 5630 5631 5633 5633 5634 5635 5635 5635 5636 5637 5638 5640 5642 5644 5646 5648 5650 5652
5628 5627 5627 5627 5627 5626 5626 5625 5625 5624 5623 5623 5625 5624 5624 5624 5624 5625 5625 5625 5624 5624 5626 5626 5625 5626 5626 5627 5627 5629 5630 5631 5631 5632 5634 5635 5635 5635 5636 5637 5638 5640 5642
5615 5615 5617 5618 5619 5620 5621 5620 5620 5619 5619 5619 5620 5620 5620 5620 5621 5620 5619 5620 5620 5619 5619 5620 5620 5620 5620 5621 5621 5621 5622 5623 5624 5625 5627 5628 5629 5630 5631 5632 5633 5634 5636